{"data":{"norad_id":57505,"intl_designator":"2023-113L","name":"STARLINK-30227","alt_names":[],"object_type":"PAYLOAD","status":"ACTIVE","operator":null,"country":"US","launch_date":"2023-08-07","launch_site_code":"AFETR","launch_vehicle":null,"mission":null,"orbit_class":"UNKNOWN","rcs_meters":null,"size_class":null,"mass_kg":null,"dimensions":null,"purposes":["comms"],"wikipedia_slug":null,"has_3d_model":false,"image_url":null,"decayed_at":null,"tle_current":{"epoch":"2026-09-20T12:31:33.588192Z","epoch_age_seconds":126145,"freshness":"FRESH","line1":"1 57505U 23113L   26263.52191653  .00039789  00000+0  12206-2 0  9991","line2":"2 57505  42.9930 345.1329 0017758 359.3689   0.7139 15.32943200173593","mean_motion":15.329432,"eccentricity":0.0017758,"inclination_deg":42.993,"raan_deg":345.1329,"arg_perigee_deg":359.3689,"mean_anomaly_deg":0.7139,"bstar":0.0012206,"rev_number":17359,"period_min":93.936944304264,"perigee_km":454.88092623558,"apogee_km":479.19224474181,"semimajor_km":6845.1735854887,"source":"CELESTRAK","updated_at":"2026-09-21T09:00:33.633915Z"}}}